Wetbulb
24.58 27.10 28.64 26.47 25.08 25.58 27.65 29.72 24.44 27.20 22.67 29.00 31.86 31.21 30.67 32.55 34.78 35.24 34.12 36.58 38.17 39.06 39.91 40.49 41.69 43.21 43.51 43.45 43.39 44.00 43.79 43.69 43.32 43.44 43.13 42.61 42.83 43.15 43.64 44.34 44.93 45.86 46.23 47.05
19.03 23.01 25.55 27.05 26.32 26.11 25.36 29.59 29.63 25.67 26.47 30.76 32.62 33.75 32.15 32.15 34.13 35.19 36.05 36.31 37.20 38.44 39.19 40.32 40.55 41.24 41.80 41.42 41.63 42.95 42.72 42.93 42.14 41.94 41.88 42.08 41.89 42.25 42.70 43.31 43.87 44.84 45.33 46.30
14.19 20.19 22.26 19.83 24.77 25.70 27.10 29.64 30.55 23.56 29.00 31.47 32.68 33.43 33.14 33.35 33.96 34.38 34.94 36.24 37.28 38.59 39.23 40.27 41.23 41.84 41.35 41.06 40.33 41.08 41.51 40.28 40.73 41.22 41.49 41.72 41.68 41.81 41.92 42.39 42.71 43.51 44.37 45.51
13.73 17.64 11.29 21.19 26.54 26.72 25.30 28.44 30.56 29.67 32.36 33.88 34.39 34.98 35.66 35.68 36.00 36.43 36.69 36.07 36.00 36.45 38.35 39.31 40.45 40.89 41.18 40.69 40.74 40.46 40.15 39.79 40.15 40.47 40.58 40.42 40.82 41.34 41.27 41.85 42.65 42.76 43.20 44.31
11.36 11.95 18.35 24.73 28.54 28.46 27.20 26.34 31.32 30.87 32.46 33.43 33.72 33.65 32.98 35.02 35.70 36.77 36.47 37.08 37.14 36.89 36.43 38.03 39.81 40.60 40.66 39.48 39.29 39.19 39.39 39.45 39.62 40.58 39.28 39.44 40.08 40.32 41.07 40.89 40.93 41.89 42.14 42.96
7.22 8.63 6.91 21.51 30.47 31.52 33.09 21.39 30.48 31.83 32.34 32.87 33.12 30.15 33.37 35.53 36.48 37.01 36.76 36.97 37.01 36.34 35.58 36.79 38.47 39.60 39.42 38.65 38.83 39.17 39.34 39.63 39.62 39.92 39.90 40.00 40.24 39.75 38.39 41.38 40.60 40.33 39.84 42.50
3.89 5.35 14.35 23.86 27.48 31.51 17.53 23.87 29.91 30.93 32.27 32.67 32.15 35.19 35.57 36.49 35.76 35.36 36.10 35.91 35.12 35.22 35.96 35.92 37.07 38.54 37.42 36.91 37.71 38.95 37.03 36.85 38.04 39.12 39.44 40.38 39.94 37.71 39.36 37.96 38.30 38.18 37.69 38.75
5.20 -1.20 3.12 24.55 26.23 22.05 28.33 32.97 32.13 33.03 33.15 32.70 33.58 35.45 34.96 34.45 34.05 33.43 34.44 34.93 34.20 35.23 34.93 34.67 35.58 37.48 36.59 36.32 36.95 36.46 35.72 35.54 35.51 36.21 38.08 38.57 38.44 36.30 36.60 37.60 37.24 36.39 36.45 35.63
16.79 16.35 24.39 25.61 26.30 30.09 31.92 32.21 30.96 33.59 35.00 34.49 33.89 33.27 34.35 33.94 32.56 33.44 33.42 34.57 33.85 34.25 33.84 31.82 31.18 35.45 35.51 34.51 34.30 33.42 33.93 34.56 34.48 34.44 35.08 35.93 37.30 36.16 36.32 36.64 37.78 36.45 36.74 36.77
17.75 23.08 23.07 25.16 26.50 26.85 29.19 29.96 29.99 32.42 34.09 34.21 33.57 34.14 32.69 33.19 33.85 32.80 31.95 32.49 30.83 29.27 29.00 29.95 28.31 31.07 33.45 32.09 32.93 33.18 33.44 33.05 33.62 34.87 34.02 34.35 35.58 36.84 37.45 37.01 37.00 36.34 36.54 37.34
16.26 21.59 22.60 24.47 24.66 25.94 27.22 27.64 28.34 29.25 31.34 32.92 32.75 32.38 33.06 32.61 31.81 32.10 31.64 28.26 27.33 28.52 29.67 29.38 29.21 29.52 28.22 31.24 32.58 33.48 33.11 32.78 33.54 34.75 34.82 34.76 35.91 36.37 37.13 38.13 38.89 37.23 37.81 38.40
13.72 23.00 22.78 24.08 26.56 27.42 26.34 27.28 28.19 27.44 27.59 29.23 31.07 31.47 32.33 32.07 32.41 31.34 31.00 26.80 26.21 27.29 27.65 29.36 29.31 28.10 26.62 30.22 32.73 33.30 33.23 32.85 33.74 34.38 34.42 35.15 34.53 33.54 35.87 36.71 37.76 38.32 38.80 38.76
22.48 25.35 24.98 26.42 27.18 28.13 27.39 27.77 27.11 26.98 27.77 27.52 27.90 29.07 30.15 30.56 30.27 29.34 28.81 28.07 27.77 30.34 27.55 27.15 27.87 26.89 26.93 28.66 31.88 33.09 34.09 33.24 33.27 33.29 34.50 34.48 34.51 34.81 34.32 34.32 37.38 37.72 37.91 38.02
24.25 24.63 24.05 25.29 24.32 27.02 27.32 28.04 24.01 23.47 25.08 27.17 27.07 23.74 25.58 26.31 23.56 27.03 29.00 31.55 30.95 28.40 27.66 27.92 26.68 29.18 29.24 28.66 31.85 33.05 33.06 32.09 33.82 34.69 34.66 34.84 35.17 35.42 35.57 35.39 35.07 35.28 37.04 37.32
23.37 21.74 21.61 21.26 20.97 21.92 24.74 20.98 21.87 24.09 24.40 24.53 23.99 25.62 21.06 24.50 25.24 28.29 30.72 31.71 22.18 22.21 28.25 28.98 27.40 30.88 28.38 28.74 30.77 32.00 33.20 33.59 34.21 34.24 34.54 34.84 34.79 34.79 35.98 36.18 35.82 35.46 34.37 35.86
14.01 15.13 18.68 20.13 19.10 16.48 20.24 22.85 22.75 26.16 25.89 21.78 21.58 21.21 22.69 23.84 25.82 27.65 28.20 21.88 24.20 30.10 30.66 27.46 28.11 30.92 26.67 28.17 30.44 30.85 32.49 32.21 34.11 34.55 34.55 34.66 35.19 35.12 35.40 35.45 35.10 34.49 34.72 35.28
9.13 15.76 11.68 12.97 13.22 11.23 8.83 13.50 15.62 17.35 17.94 20.89 21.93 16.34 17.51 26.99 24.85 23.29 21.47 16.37 18.49 21.04 18.60 18.49 23.49 21.04 27.36 28.94 30.14 33.29 33.78 34.13 34.38 35.10 34.56 35.10 35.08 35.07 35.34 35.10 34.49 34.10 34.63 35.04
3.91 5.18 5.43 4.67 4.10 2.63 2.61 2.59 6.77 8.90 11.60 13.86 14.43 15.65 18.15 22.80 25.08 25.63 26.61 25.54 18.72 17.97 20.69 20.18 21.36 21.40 31.28 32.09 32.88 33.69 34.16 34.19 34.54 34.74 34.67 34.63 34.72 35.40 35.07 35.04 34.64 34.25 34.49 34.52
-2.19 -1.34 -0.58 -1.18 -5.34 -4.99 -3.91 -3.13 -0.20 3.60 4.57 7.09 8.49 8.29 13.04 16.25 20.44 25.18 30.00 30.00 29.53 28.95 28.37 28.69 27.43 28.62 31.57 32.23 32.86 33.60 33.84 33.80 34.06 34.51 34.64 34.39 34.16 34.74 34.56 34.72 34.46 34.71 34.28 34.43
-12.15 -11.29 -8.56 -10.31 -15.02 -15.30 -9.43 -6.49 -5.39 -4.44 -0.05 2.37 4.37 6.30 8.31 12.81 20.95 25.78 28.62 29.01 30.33 31.18 31.83 32.18 31.27 31.61 32.35 32.70 31.82 33.47 33.39 33.54 33.62 34.25 34.07 34.09 34.31 33.94 34.30 34.36 34.46 33.86 34.15 34.51
-16.76 -17.14 -15.54 -14.32 -12.59 -13.34 -11.73 -8.95 -10.21 -7.08 -4.12 -4.13 -0.44 3.10 6.00 9.90 11.65 19.15 25.90 27.21 27.63 30.09 30.82 31.00 31.41 32.22 32.66 32.64 32.64 33.09 33.32 33.26 33.39 33.83 33.80 33.81 33.87 33.87 33.99 34.04 33.87 33.99 33.86 33.44
-21.00 -19.55 -15.71 -15.56 -15.00 -13.12 -14.02 -12.43 -10.80 -7.16 -5.40 -4.92 -2.51 0.62 3.65 7.24 11.77 14.81 21.09 26.51 25.08 24.07 22.54 27.10 30.29 31.94 32.32 32.14 32.40 32.61 32.98 33.17 33.63 33.72 33.60 34.01 33.78 33.53 33.56 33.48 33.35 33.59 31.45 28.71
-19.56 -19.05 -16.08 -15.88 -15.71 -15.59 -16.15 -14.49 -10.68 -8.90 -7.12 -4.75 -3.29 -0.70 1.98 7.09 12.27 17.11 19.55 24.07 25.66 22.46 20.89 23.99 27.82 27.86 30.77 32.22 32.38 32.38 32.71 32.71 33.20 33.23 33.57 33.98 33.78 33.74 33.50 32.87 31.24 28.35 27.28 26.02
-19.92 -18.72 -17.85 -16.86 -19.11 -19.18 -16.43 -13.70 -10.59 -8.29 -6.14 -3.78 -2.03 0.05 1.96 4.74 9.86 17.56 24.11 22.94 18.84 21.02 22.12 22.85 23.70 26.47 28.90 30.81 31.98 32.19 32.56 32.73 33.23 33.42 33.53 33.23 33.23 32.44 30.37 27.81 26.46 26.02 24.93 23.29
-19.41 -18.21 -16.99 -17.65 -18.82 -14.85 -14.16 -11.57 -10.74 -8.54 -6.18 -3.89 -1.46 1.00 3.45 6.43 8.70 14.55 20.63 20.70 19.72 18.33 15.61 18.10 22.17 24.38 27.50 29.46 31.18 31.99 32.38 32.79 32.97 31.87 31.00 30.46 29.17 27.30 25.92 25.39 24.02 22.80 22.27 20.74
-15.31 -14.46 -13.48 -13.51 -13.28 -12.40 -11.14 -10.17 -8.71 -5.54 -3.39 -1.52 2.77 7.09 9.49 12.15 15.03 18.27 15.84 14.79 16.63 10.87 9.85 11.76 17.93 22.24 26.02 28.04 28.99 30.44 29.77 29.82 29.08 28.70 28.22 26.68 25.37 24.56 23.15 22.08 20.70 19.94 19.03 17.94
-15.86 -14.20 -14.35 -12.78 -11.92 -12.26 -9.04 -4.34 -3.03 -2.22 -0.14 2.63 4.72 8.93 7.81 9.31 9.74 13.74 12.21 11.20 7.52 6.63 6.62 9.65 20.42 21.68 21.82 22.81 22.70 22.88 24.08 25.54 25.91 25.08 24.91 23.75 23.22 21.87 20.36 19.71 18.84 17.37 15.93 14.08
MSLP
1007.73 1006.89 1006.06 1005.79 1005.69 1005.51 1005.44 1004.32 1004.98 1004.06 1004.36 1003.94 1003.70 1004.18 1004.45 1004.70 1005.14 1005.47 1005.87 1006.11 1006.50 1006.94 1007.23 1007.57 1007.88 1008.24 1008.77 1009.25 1009.69 1010.29 1011.00 1011.73 1012.39 1013.13 1013.95 1014.81 1015.67 1016.47 1017.09 1017.65 1018.22 1018.80 1019.46 1020.11
1009.44 1008.45 1007.86 1006.85 1006.66 1005.96 1005.32 1004.87 1004.76 1004.70 1004.23 1004.24 1004.20 1004.27 1004.74 1004.82 1005.21 1005.58 1005.80 1006.02 1006.38 1006.73 1007.21 1007.60 1007.89 1008.23 1008.79 1009.34 1009.89 1010.42 1011.01 1011.58 1012.24 1013.04 1013.85 1014.68 1015.55 1016.34 1016.98 1017.55 1018.10 1018.74 1019.35 1019.85
1011.00 1010.14 1008.70 1008.19 1007.36 1006.91 1005.79 1005.02 1004.44 1004.80 1004.51 1004.19 1004.45 1004.69 1004.82 1004.84 1005.04 1005.43 1005.60 1005.95 1006.40 1006.75 1007.15 1007.48 1007.72 1008.00 1008.60 1009.14 1009.84 1010.53 1011.01 1011.53 1012.20 1012.94 1013.63 1014.29 1015.03 1015.88 1016.69 1017.30 1017.92 1018.61 1019.20 1019.68
1011.87 1010.88 1009.79 1008.89 1007.54 1007.29 1006.93 1006.09 1005.35 1004.52 1004.24 1004.16 1004.11 1004.26 1004.30 1004.47 1004.62 1004.83 1005.21 1005.82 1006.09 1006.49 1006.90 1007.21 1007.49 1007.91 1008.41 1009.12 1009.75 1010.38 1011.03 1011.60 1012.17 1012.81 1013.48 1014.19 1014.84 1015.54 1016.29 1016.94 1017.57 1018.25 1018.89 1019.50
1012.33 1012.09 1010.50 1008.88 1008.19 1008.06 1007.26 1006.00 1005.16 1004.94 1004.49 1004.11 1004.28 1004.39 1004.67 1004.57 1004.65 1004.84 1005.07 1005.36 1005.83 1006.11 1006.63 1006.94 1007.38 1007.80 1008.25 1009.07 1009.75 1010.31 1010.90 1011.38 1011.95 1012.50 1013.16 1013.99 1014.80 1015.27 1015.87 1016.58 1017.48 1018.02 1018.54 1019.28
1012.57 1012.01 1010.75 1008.57 1008.29 1007.76 1007.13 1006.88 1005.80 1004.84 1004.47 1004.45 1004.34 1004.65 1004.58 1004.79 1004.97 1005.22 1005.43 1005.65 1005.73 1006.14 1006.76 1007.10 1007.40 1007.84 1008.37 1008.86 1009.49 1009.99 1010.52 1011.01 1011.60 1012.23 1012.89 1013.57 1014.28 1015.01 1015.69 1016.27 1017.04 1017.81 1018.50 1018.87
1012.85 1011.95 1009.88 1007.85 1007.35 1007.07 1007.38 1007.82 1006.14 1005.18 1004.69 1004.39 1004.63 1004.49 1004.47 1004.77 1005.21 1005.60 1005.92 1006.01 1006.12 1006.31 1006.76 1007.08 1007.25 1007.83 1008.37 1008.90 1009.43 1009.84 1010.41 1010.86 1011.38 1011.95 1012.53 1013.17 1014.04 1014.75 1015.35 1016.20 1017.02 1017.78 1018.43 1018.77
1012.89 1011.95 1009.90 1007.29 1006.95 1006.70 1006.26 1005.91 1005.95 1005.81 1005.58 1005.50 1005.82 1005.67 1005.51 1005.84 1006.11 1006.15 1006.22 1006.30 1006.39 1006.55 1006.96 1007.25 1007.53 1007.88 1008.20 1008.65 1008.96 1009.66 1010.21 1010.82 1011.37 1011.95 1012.40 1013.03 1013.67 1014.61 1015.21 1015.97 1016.85 1017.60 1018.31 1018.99
1010.92 1009.42 1007.96 1007.17 1006.57 1006.19 1006.22 1006.24 1006.05 1005.55 1006.64 1006.59 1006.85 1006.35 1006.26 1006.24 1006.20 1006.30 1006.58 1007.01 1007.22 1007.31 1007.48 1007.54 1007.73 1008.07 1008.39 1008.92 1009.05 1009.44 1010.09 1010.63 1011.11 1011.71 1012.21 1012.75 1013.46 1014.20 1015.11 1015.59 1016.32 1017.17 1017.96 1018.60
1010.41 1008.79 1007.86 1007.27 1006.81 1006.59 1006.31 1006.12 1006.26 1006.18 1006.19 1006.47 1006.75 1006.81 1006.32 1006.54 1006.70 1006.88 1007.11 1007.39 1007.66 1007.96 1008.05 1008.14 1007.95 1008.10 1008.58 1008.70 1008.93 1009.45 1010.00 1010.52 1011.02 1011.52 1012.04 1012.59 1013.14 1013.67 1014.26 1014.88 1015.48 1016.29 1017.16 1017.90
1009.85 1008.32 1007.65 1007.22 1006.81 1006.67 1006.62 1006.48 1006.61 1006.65 1006.64 1006.66 1007.07 1007.31 1007.27 1006.80 1007.02 1007.12 1007.30 1007.52 1007.92 1008.15 1008.18 1008.49 1008.19 1008.20 1008.16 1008.08 1008.49 1009.19 1009.73 1010.28 1010.87 1011.17 1011.51 1012.03 1012.46 1012.82 1013.31 1013.65 1013.96 1014.94 1015.87 1016.69
1008.97 1007.40 1006.83 1006.50 1006.20 1006.35 1006.66 1006.54 1006.39 1006.59 1006.60 1006.72 1006.85 1007.10 1007.46 1007.53 1006.98 1006.80 1006.82 1007.23 1007.62 1007.84 1008.16 1008.58 1008.37 1008.15 1007.43 1007.77 1008.28 1008.79 1009.49 1009.94 1010.31 1010.86 1011.15 1011.53 1012.09 1012.72 1012.98 1013.26 1013.71 1014.17 1014.59 1015.05
1007.35 1006.72 1006.80 1006.11 1005.66 1005.61 1006.08 1006.08 1006.30 1006.55 1006.34 1006.49 1006.73 1007.04 1007.31 1007.33 1006.91 1006.64 1006.58 1006.84 1007.27 1007.39 1007.51 1007.77 1007.99 1007.68 1007.64 1007.81 1007.86 1008.33 1008.77 1009.39 1010.00 1010.31 1010.58 1011.00 1011.64 1012.08 1012.81 1013.42 1013.57 1014.03 1014.48 1015.05
1006.31 1006.10 1006.08 1006.16 1006.12 1005.67 1006.15 1006.06 1006.25 1006.53 1006.53 1006.45 1006.45 1006.55 1006.70 1007.12 1006.95 1006.95 1006.73 1006.43 1006.60 1006.95 1007.13 1006.99 1007.33 1007.49 1007.49 1007.59 1007.84 1007.79 1008.08 1008.58 1009.12 1009.50 1009.93 1010.47 1010.94 1011.51 1011.90 1012.53 1013.18 1013.87 1014.45 1014.82
1007.19 1007.48 1007.35 1007.57 1007.74 1007.22 1006.51 1006.18 1006.69 1006.78 1006.78 1006.91 1006.47 1006.64 1006.83 1006.86 1006.58 1006.29 1006.02 1005.67 1006.32 1006.65 1006.51 1006.75 1006.95 1006.42 1006.99 1006.98 1007.15 1007.37 1007.59 1007.65 1008.08 1008.77 1009.45 1009.93 1010.45 1011.08 1011.69 1012.12 1012.68 1013.42 1014.24 1014.88
1008.45 1008.87 1008.87 1008.42 1008.66 1008.55 1007.55 1007.40 1007.40 1007.11 1007.33 1007.16 1007.03 1007.21 1006.77 1006.52 1006.31 1005.86 1005.78 1005.81 1006.46 1005.93 1005.66 1006.19 1006.39 1006.04 1006.52 1006.68 1006.48 1006.68 1006.97 1007.33 1007.28 1007.98 1008.78 1009.41 1009.87 1010.44 1011.06 1011.63 1012.18 1012.76 1013.43 1014.09
1010.26 1010.03 1010.20 1010.23 1010.14 1010.30 1010.62 1010.20 1009.64 1009.30 1008.94 1008.58 1008.22 1008.08 1007.48 1006.66 1006.33 1005.99 1005.38 1005.83 1005.66 1005.49 1005.28 1005.73 1005.91 1006.01 1005.88 1006.15 1006.05 1005.99 1006.07 1006.73 1007.34 1007.23 1007.93 1008.50 1009.04 1009.48 1010.15 1010.76 1011.48 1012.07 1012.56 1013.29
1012.06 1012.18 1012.33 1012.58 1012.44 1012.11 1011.77 1011.69 1011.53 1010.99 1010.38 1009.93 1009.10 1008.66 1007.90 1007.24 1006.56 1005.74 1005.23 1005.28 1005.53 1005.26 1004.98 1004.85 1005.15 1005.38 1005.47 1005.67 1005.99 1006.08 1005.72 1005.76 1006.49 1006.95 1006.95 1007.79 1008.31 1008.95 1009.55 1010.04 1010.62 1011.50 1012.23 1012.91
1013.68 1013.64 1013.76 1013.95 1014.01 1013.63 1013.23 1012.78 1012.51 1011.96 1011.47 1010.86 1009.88 1009.17 1008.21 1007.55 1006.44 1005.50 1005.00 1004.81 1004.53 1004.22 1004.12 1004.34 1004.61 1004.56 1004.80 1005.11 1005.42 1005.67 1005.57 1005.47 1005.73 1006.36 1006.55 1007.07 1007.73 1008.14 1008.84 1009.56 1010.01 1010.79 1011.72 1012.36
1015.12 1014.80 1014.54 1014.65 1014.72 1014.61 1013.98 1013.28 1012.90 1012.33 1011.77 1011.28 1010.55 1009.49 1008.59 1007.72 1006.32 1005.78 1004.93 1004.43 1003.63 1003.20 1003.78 1003.93 1003.88 1003.74 1004.01 1004.45 1004.96 1005.08 1005.26 1005.03 1005.20 1005.48 1006.11 1006.26 1006.98 1007.54 1008.13 1008.96 1009.68 1009.96 1010.88 1012.02
1015.59 1015.44 1015.33 1015.30 1014.87 1014.38 1013.96 1013.34 1012.95 1012.16 1011.15 1010.79 1010.34 1009.42 1008.54 1007.61 1006.73 1005.75 1004.46 1003.59 1003.27 1003.38 1003.25 1003.00 1003.06 1003.25 1003.51 1003.89 1004.41 1004.56 1004.75 1004.68 1004.75 1004.93 1005.37 1005.74 1006.23 1006.84 1007.42 1008.09 1008.97 1009.80 1010.29 1011.31
1016.03 1015.70 1015.30 1015.03 1014.66 1013.87 1013.21 1012.80 1012.49 1012.00 1011.38 1010.62 1009.72 1008.71 1007.86 1006.57 1005.70 1004.63 1003.68 1003.07 1003.09 1003.34 1002.75 1002.80 1003.00 1002.87 1003.10 1003.39 1003.93 1004.08 1004.13 1004.12 1004.26 1004.48 1004.72 1005.25 1005.67 1006.11 1006.68 1007.43 1008.19 1009.40 1010.38 1011.01
1015.60 1015.39 1015.11 1014.71 1014.14 1013.44 1012.95 1012.50 1011.78 1011.13 1010.17 1009.70 1009.02 1008.31 1007.43 1005.96 1005.15 1004.14 1002.64 1002.03 1002.54 1002.69 1002.66 1002.90 1002.79 1002.71 1002.89 1003.09 1003.34 1003.38 1003.42 1003.27 1003.49 1003.87 1004.31 1004.52 1005.20 1005.59 1005.97 1006.79 1007.89 1008.99 1010.50 1011.21
1014.95 1014.59 1014.38 1013.87 1013.51 1013.20 1012.58 1011.79 1011.07 1010.34 1009.44 1008.28 1007.68 1006.95 1006.34 1005.41 1003.85 1003.05 1002.31 1001.98 1002.21 1002.39 1002.25 1002.28 1002.34 1002.41 1002.38 1002.56 1002.72 1002.46 1002.42 1002.44 1003.06 1003.07 1003.90 1004.32 1005.03 1005.66 1006.10 1006.45 1007.83 1009.10 1010.39 1011.67
1014.20 1013.73 1013.32 1012.98 1012.63 1011.93 1011.11 1010.35 1009.75 1009.10 1008.13 1007.12 1006.18 1005.46 1004.77 1004.27 1003.49 1001.75 1001.23 1000.88 1000.99 1001.28 1001.63 1001.84 1001.94 1001.59 1001.52 1001.77 1001.87 1001.63 1001.40 1002.04 1002.50 1002.70 1003.58 1004.52 1004.99 1005.89 1006.44 1006.04 1007.38 1009.15 1010.51 1011.66
1013.69 1013.15 1012.50 1011.93 1011.53 1011.04 1010.26 1009.44 1008.53 1007.51 1006.69 1005.79 1004.67 1003.62 1002.84 1002.25 1001.72 1001.23 1000.76 1000.62 1000.68 1000.91 1001.07 1001.01 1000.99 1001.13 1001.22 1001.13 1001.31 1001.45 1001.68 1002.02 1002.18 1002.57 1003.31 1004.41 1005.14 1005.81 1006.29 1006.34 1007.55 1009.20 1010.75 1011.80
1012.62 1011.97 1011.29 1010.56 1010.03 1009.61 1009.07 1008.19 1007.21 1006.00 1005.12 1004.33 1003.27 1002.27 1001.75 1001.15 1000.81 1000.51 1000.34 1000.41 1000.52 1000.85 1001.08 1001.09 1001.14 1001.07 1001.19 1001.31 1001.56 1001.82 1001.95 1002.07 1002.29 1002.90 1003.59 1004.02 1004.51 1005.55 1006.13 1006.13 1008.23 1009.48 1010.76 1011.77
Wind_Speed
6 7 5 6 7 8 18 18 8 6 5 5 5 4 3 4 5 7 5 7 6 6 5 5 7 6 6 7 9 10 11 11 11 10 10 10 9 9 9 9 9 9 8 6
6 12 5 3 5 8 11 17 11 4 5 4 3 5 5 6 7 7 6 6 5 6 6 6 6 6 6 7 8 9 9 10 9 11 11 10 10 10 9 9 9 8 8 8
2 6 6 4 4 3 8 8 16 8 5 3 5 6 4 5 7 7 7 6 5 5 6 6 7 7 8 8 7 7 8 8 9 10 11 12 11 11 10 10 9 9 8 8
1 4 1 2 3 8 9 9 7 3 8 8 6 5 5 4 6 6 7 7 5 5 4 5 5 7 7 7 8 8 7 8 8 10 10 10 11 11 10 9 11 9 8 7
5 3 6 3 4 5 2 6 5 7 5 6 5 3 1 3 2 4 3 2 2 3 3 4 6 6 8 8 7 7 8 9 9 10 11 11 11 11 9 9 7 8 7 9
3 6 5 4 8 6 6 5 7 6 9 7 5 7 6 4 3 3 3 1 1 4 3 4 5 6 7 8 9 10 10 10 9 10 11 12 12 11 5 8 8 7 7 8
2 2 6 5 7 4 5 3 8 6 3 5 5 4 5 6 2 2 1 2 2 3 3 3 6 7 7 6 8 6 6 7 9 9 11 11 10 5 9 7 8 7 7 6
2 4 7 5 5 6 4 7 4 9 11 13 11 8 6 7 5 1 4 3 3 4 3 2 4 6 7 7 6 7 7 8 8 8 8 8 11 7 7 9 9 8 7 4
7 7 2 5 2 3 1 4 5 8 3 3 11 7 3 4 2 2 4 1 1 4 2 2 1 4 5 2 6 6 7 8 8 8 8 8 11 10 8 9 9 8 8 7
3 7 6 4 4 2 3 5 3 2 4 7 10 9 9 2 6 5 1 0 4 3 2 2 3 4 5 5 6 6 6 6 7 10 8 7 6 8 9 10 9 9 9 8
5 9 6 5 6 7 8 5 6 4 6 7 5 4 6 8 5 7 5 2 3 4 4 4 4 6 5 5 6 6 5 6 7 7 11 10 9 9 10 9 12 12 10 11
7 10 7 8 8 6 7 10 9 6 5 9 9 9 7 8 9 7 7 4 3 5 5 6 7 7 3 6 7 7 6 6 7 7 7 8 8 4 1 6 13 14 16 14
11 10 8 11 11 11 12 14 9 9 9 10 6 8 9 7 8 8 7 3 6 9 6 4 4 4 4 4 7 8 8 7 6 6 8 9 8 9 9 2 10 11 15 15
7 5 9 8 9 9 12 17 7 6 7 8 8 3 5 8 4 8 12 15 8 5 5 6 4 9 7 7 7 9 8 9 8 7 8 8 9 8 8 10 10 7 10 14
5 1 6 8 11 15 13 4 8 8 6 6 6 7 5 9 9 12 13 12 3 4 7 6 6 13 6 7 8 8 7 7 7 7 7 7 7 8 8 9 9 8 5 5
5 6 4 2 5 9 3 4 2 1 1 5 3 3 5 7 8 10 8 5 5 12 10 6 7 8 5 6 7 5 6 7 10 8 8 8 8 9 9 9 9 10 10 10
1 2 4 3 7 5 5 6 7 7 7 8 7 7 7 7 9 9 8 6 7 7 3 2 6 4 5 6 8 6 7 7 9 8 9 9 9 10 10 10 10 10 10 10
2 2 2 3 8 9 8 5 6 7 7 9 11 10 9 7 8 7 6 5 5 4 6 6 5 4 6 8 7 6 6 7 9 9 8 9 9 9 10 10 11 10 9 10
2 4 3 3 3 7 6 7 5 6 7 8 9 10 9 10 9 11 5 7 7 6 6 5 6 8 7 8 8 6 6 8 9 8 9 10 9 10 10 10 10 11 10 11
3 3 4 5 3 5 7 6 6 7 7 7 8 9 10 10 7 9 8 10 8 4 6 6 7 6 6 7 9 6 7 9 9 9 9 10 10 10 10 12 12 12 12 11
5 5 6 7 8 7 8 7 5 10 8 6 9 11 11 8 7 10 10 7 5 7 7 7 5 5 5 6 8 7 8 8 9 9 10 10 11 11 11 12 12 11 12 11
4 4 7 7 7 9 6 6 7 10 10 8 10 11 10 12 10 10 12 10 3 4 2 3 5 8 6 8 7 9 9 9 9 8 9 10 11 12 12 12 12 11 10 11
4 4 8 9 8 7 5 7 10 11 14 11 11 11 10 10 7 8 9 5 6 8 6 6 8 8 10 8 8 9 10 10 10 9 10 10 11 11 12 12 11 11 11 11
4 6 7 7 5 5 9 7 10 10 12 14 13 12 10 9 10 10 12 6 6 8 7 6 8 10 11 7 9 9 9 9 10 9 9 11 10 9 10 12 11 10 11 11
6 7 8 9 6 7 7 8 7 8 10 12 14 13 15 11 12 6 6 6 7 5 4 6 9 9 7 8 9 9 8 9 9 8 9 9 10 9 10 12 12 12 11 11
7 7 7 9 8 7 7 6 7 8 7 9 9 9 10 10 10 12 6 4 4 3 3 3 3 4 7 6 7 8 7 7 9 10 11 10 11 11 11 12 13 13 11 11
7 7 6 6 5 5 6 7 8 10 9 9 10 9 7 6 5 4 4 3 3 3 2 1 3 3 4 5 4 4 5 6 9 9 10 11 11 10 11 13 12 11 12 12
Wind_Direction
298 328 194 178 194 196 216 230 183 212 185 250 50 64 45 94 93 105 102 113 124 139 148 156 163 152 145 147 149 155 156 159 164 158 154 149 150 153 151 157 162 160 154 149
33 1 3 273 343 219 216 232 252 132 209 116 111 86 79 92 102 102 107 115 128 137 152 165 169 161 153 152 153 153 159 166 154 152 150 154 150 155 156 157 154 154 159 159
43 328 329 220 248 271 269 228 222 199 197 193 107 129 140 114 109 104 105 124 147 170 184 180 180 165 168 155 136 152 159 153 154 155 158 163 159 156 160 161 152 167 167 162
103 345 224 306 269 224 241 276 281 142 173 182 183 172 160 159 132 113 119 123 140 165 184 198 177 165 140 147 160 159 159 159 157 159 163 161 158 165 159 160 168 168 164 163
119 153 294 122 22 33 6 292 230 210 218 213 170 81 136 200 151 141 93 17 124 155 169 162 170 165 149 151 155 156 170 169 169 168 159 159 168 166 165 152 157 163 164 163
122 146 189 181 155 224 140 281 327 251 190 186 178 220 221 158 122 89 96 189 50 78 107 140 173 157 153 166 166 185 181 178 167 167 168 172 171 164 149 161 163 152 159 173
264 147 279 240 176 153 89 290 327 350 312 189 178 204 150 119 65 337 75 148 84 74 89 130 159 155 177 156 195 184 161 157 165 170 168 169 162 157 155 148 146 154 161 165
131 78 276 201 112 164 188 193 133 15 23 40 26 16 102 150 178 165 72 58 63 65 9 28 141 163 188 198 173 166 163 166 169 167 165 164 160 153 147 151 155 162 154 141
185 212 171 204 295 321 150 177 296 130 197 47 323 310 296 307 48 334 29 71 88 120 74 4 167 199 221 200 163 160 163 180 174 162 164 162 165 162 158 162 167 165 170 167
73 249 244 220 257 206 264 245 247 199 180 181 186 243 295 276 306 321 304 237 164 149 170 258 258 215 201 175 157 160 174 170 169 172 166 160 165 171 171 176 173 168 172 174
263 266 300 270 243 259 269 274 277 211 208 229 219 231 285 299 250 260 277 209 195 234 211 237 227 226 210 185 159 171 169 162 181 184 179 174 183 181 186 193 181 171 180 176
220 235 216 239 256 257 262 270 263 244 229 224 210 212 218 256 270 266 269 167 218 245 243 203 216 258 228 176 174 168 177 179 181 183 180 176 172 159 82 171 188 188 176 174
241 230 217 255 260 263 254 258 251 243 249 270 255 215 193 220 247 261 286 283 240 248 246 187 242 241 248 205 172 180 187 173 174 176 179 176 180 181 179 91 165 167 172 164
260 323 286 255 262 259 252 252 213 185 220 229 238 224 217 209 205 244 258 260 250 192 237 252 242 245 209 189 194 191 180 171 174 182 179 181 182 189 173 172 173 171 173 168
211 197 287 297 270 261 246 207 181 190 194 242 224 234 190 245 242 229 241 253 209 204 233 228 241 264 183 183 188 189 186 177 172 168 177 177 173 171 176 173 172 167 140 147
328 285 266 260 38 359 338 353 260 17 302 278 280 282 244 248 253 258 248 203 212 246 237 209 225 255 189 198 186 179 188 190 171 167 167 173 174 176 177 178 174 173 176 178
0 220 3 331 354 5 6 356 0 358 339 320 328 330 328 289 266 251 238 223 224 257 234 189 267 240 196 200 193 192 177 178 192 170 176 181 182 183 182 177 181 182 180 177
330 328 319 305 307 318 324 352 329 319 307 316 312 317 305 296 278 266 220 194 215 257 244 225 231 235 226 220 212 213 192 179 184 197 171 181 182 181 183 182 174 176 172 168
334 305 312 302 300 299 293 289 284 284 292 290 300 292 295 289 285 287 257 216 202 210 251 209 210 204 208 215 208 210 200 185 184 190 184 175 179 176 176 181 174 166 167 165
298 293 298 281 247 227 272 259 265 271 261 260 270 280 277 269 285 287 258 235 227 204 189 210 208 215 214 206 207 212 210 197 192 188 186 176 181 179 174 175 174 165 161 171
290 283 285 270 273 257 249 267 277 283 286 254 266 262 264 268 265 272 277 262 220 224 199 189 205 222 208 203 210 215 208 203 198 193 191 185 176 177 174 169 169 171 164 156
258 274 282 274 266 283 266 260 257 264 266 262 265 273 272 273 266 255 245 246 187 217 169 200 209 216 218 200 212 213 209 204 203 196 187 187 184 177 173 170 165 165 159 147
269 258 273 277 274 275 285 269 267 267 275 263 257 257 255 264 262 273 273 213 194 194 197 206 211 210 220 217 222 216 213 203 203 198 195 187 186 180 168 165 156 149 155 152
271 262 252 245 240 250 258 249 248 251 253 265 258 254 254 266 267 236 247 227 188 189 199 194 199 210 215 221 222 217 205 204 205 188 190 181 176 170 159 146 145 148 145 147
278 287 291 293 291 280 271 266 257 249 248 251 258 256 247 234 238 268 251 241 222 200 187 197 202 207 222 230 231 221 209 203 195 172 163 165 156 156 156 148 140 145 145 145
275 276 274 269 264 270 272 275 269 270 263 265 265 255 248 239 232 235 219 208 211 204 218 207 197 213 225 216 214 215 194 183 169 163 159 158 156 157 152 141 135 140 140 141
268 271 286 287 262 239 241 265 280 277 272 264 266 267 254 248 234 213 191 180 161 168 172 198 199 174 160 162 165 168 172 170 166 159 159 156 149 150 147 133 137 137 139 137